Location: Leo
(52.0556°N, 112.3605°W)
Time: 11:03:35
(UTC+00:00)

FO-29 - Pass Details

Date: 03 December 2023
Orbit: 799 x 1322 km, 98.6° (Epoch: 01 March)

Event Time Altitude Azimuth Distance (km) Brightness Sun altitude
Rises 09:15:55 0° 20° (NNE) 4,099 13.2 -52.5°
Reaches altitude 10° 09:18:56 10° 31° (NNE) 3,198 12.6 -52.2°
Enters shadow 09:21:19 19° 46° (NE) 2,606 12.0 -51.9°
